EW4525 Weather Reports


Display with metric or nautical units.
time (UTC)temp
F
wind
direction
speed
MPH
gust
MPH
rain 1hr
in
rain 24hr
in
rain mn
in
humidity
%
barometer
mb
20210122020035 28 286 0.0 0.0 0.00 0.00 0.00 85 1000.1
20210122015535 28 286 0.0 0.0 0.00 0.00 0.00 84 1000.1
20210122015021 28 286 0.0 0.0 0.00 0.00 0.00 84 1000.1
20210122014535 28 286 0.0 0.0 0.00 0.00 0.00 83 1000.2
20210122014023 28 286 0.0 0.0 0.00 0.00 0.00 83 1000.3
20210122013523 28 286 0.0 0.0 0.00 0.00 0.00 83 1000.3
20210122013024 28 286 0.0 0.0 0.00 0.00 0.00 82 1000.2
20210122012514 28 286 0.0 0.0 0.00 0.00 0.00 81 1000.3
20210122012021 28 286 0.0 0.0 0.00 0.00 0.00 81 1000.4
20210122011521 28 286 0.0 0.0 0.00 0.00 0.00 81 1000.4
20210122011019 28 286 0.0 0.0 0.00 0.00 0.00 81 1000.4
20210122010459 28 286 0.0 0.0 0.00 0.00 0.00 81 1000.5
20210122005959 28 286 0.0 0.0 0.00 0.00 0.00 80 1000.5
20210122005458 28 286 0.0 0.0 0.00 0.00 0.00 80 1000.7
20210122005000 28 286 0.0 0.0 0.00 0.00 0.00 79 1000.7
20210122004458 28 286 0.0 0.0 0.00 0.00 0.00 79 1000.7
20210122003957 28 286 0.0 0.0 0.00 0.00 0.00 78 1000.7
20210122003500 28 286 0.0 0.0 0.00 0.00 0.00 79 1000.7
20210122002957 28 286 0.0 0.0 0.00 0.00 0.00 78 1000.8
20210122002458 28 286 0.0 0.0 0.00 0.00 0.00 78 1000.8
20210122001958 28 286 0.0 0.0 0.00 0.00 0.00 78 1000.8
20210122001458 28 286 0.0 0.0 0.00 0.00 0.00 77 1000.8
20210122000957 28 286 0.0 0.0 0.00 0.00 0.00 78 1000.9
20210122000505 28 286 0.0 0.0 0.00 0.00 0.00 78 1000.9
20210122000001 29 286 0.0 0.0 0.00 0.00 0.00 76 1000.9
20210121235456 29 286 0.0 0.0 0.00 0.00 0.00 76 1001.0
20210121235000 29 286 0.0 0.0 0.00 0.00 0.00 76 1000.9
20210121234457 29 286 0.0 0.0 0.00 0.00 0.00 76 1000.9
20210121233956 29 286 0.0 0.0 0.00 0.00 0.00 76 1000.9
20210121233449 29 286 0.0 0.0 0.00 0.00 0.00 75 1000.9
20210121232944 29 286 0.0 0.0 0.00 0.00 0.00 75 1000.9
20210121232440 29 286 0.0 0.0 0.00 0.00 0.00 75 1000.9
20210121231931 29 286 0.0 0.0 0.00 0.00 0.00 75 1000.8
20210121231425 29 286 0.0 0.0 0.00 0.00 0.00 75 1000.8
20210121230927 29 286 0.0 0.0 0.00 0.00 0.00 75 1000.8
20210121230417 29 286 0.0 0.0 0.00 0.00 0.00 75 1000.9
20210121225918 29 286 0.0 0.0 0.00 0.00 0.00 75 1000.8
20210121225417 29 286 0.0 0.0 0.00 0.00 0.00 74 1000.8
20210121224921 29 286 0.0 0.0 0.00 0.00 0.00 74 1000.7
20210121224420 29 286 0.0 0.0 0.00 0.00 0.00 74 1000.7
20210121223913 29 286 0.0 0.0 0.00 0.00 0.00 74 1000.8
20210121223419 29 286 0.0 0.0 0.00 0.00 0.00 73 1000.7
20210121222910 29 286 0.0 0.0 0.00 0.00 0.00 73 1000.7
20210121222411 29 286 0.0 2.0 0.00 0.00 0.00 74 1000.7
20210121221909 29 286 0.0 2.0 0.00 0.00 0.00 74 1000.7
20210121221410 29 286 0.0 1.0 0.00 0.00 0.00 73 1000.7
20210121220912 29 286 0.0 1.0 0.00 0.00 0.00 73 1000.6
20210121220411 29 286 0.0 0.0 0.00 0.00 0.00 73 1000.6
20210121215910 29 286 0.0 1.0 0.00 0.00 0.00 73 1000.7
20210121215407 29 286 0.0 1.0 0.00 0.00 0.00 73 1000.7
20210121214912 29 286 0.0 1.0 0.00 0.00 0.00 73 1000.6
20210121214406 29 286 0.0 2.0 0.00 0.00 0.00 72 1000.6
20210121213905 29 286 0.0 2.0 0.00 0.00 0.00 72 1000.7
20210121213407 29 284 0.0 1.0 0.00 0.00 0.00 73 1000.7
20210121212857 29 284 0.0 1.0 0.00 0.00 0.00 73 1000.7
20210121212352 29 282 0.0 0.0 0.00 0.00 0.00 72 1000.7
20210121211847 29 283 0.0 0.0 0.00 0.00 0.00 72 1000.6
20210121211340 29 282 0.0 0.0 0.00 0.00 0.00 72 1000.7
20210121210836 29 281 0.0 0.0 0.00 0.00 0.00 72 1000.7
20210121210328 29 281 0.0 1.0 0.00 0.00 0.00 72 1000.5
20210121205821 29 281 0.0 1.0 0.00 0.00 0.00 71 1000.6
20210121205321 29 281 0.0 4.0 0.00 0.00 0.00 72 1000.5
20210121204811 29 281 0.0 4.0 0.00 0.00 0.00 72 1000.5
20210121204303 29 290 0.0 2.0 0.00 0.00 0.00 73 1000.5
20210121203757 29 292 0.0 3.0 0.00 0.00 0.00 73 1000.5
20210121203252 28 292 1.0 3.0 0.00 0.00 0.00 71 1000.5
20210121202747 28 180 0.0 3.0 0.00 0.00 0.00 72 1000.6
20210121202241 28 285 1.0 7.0 0.00 0.00 0.00 73 1000.6
20210121201733 28 297 1.0 7.0 0.00 0.00 0.00 73 1000.6
20210121201227 28 286 0.0 4.0 0.00 0.00 0.00 73 1000.6
20210121200722 28 298 1.0 4.0 0.00 0.00 0.00 73 1000.7
20210121200225 28 294 0.0 3.0 0.00 0.00 0.00 72 1000.5
20210121195709 28 290 0.0 3.0 0.00 0.00 0.00 73 1000.6
20210121195207 28 288 0.0 3.0 0.00 0.00 0.00 73 1000.4
20210121194657 28 284 0.0 3.0 0.00 0.00 0.00 73 1000.4
20210121194153 28 290 0.0 3.0 0.00 0.00 0.00 74 1000.4
20210121193645 28 300 0.0 4.0 0.00 0.00 0.00 73 1000.5
20210121193140 28 292 0.0 4.0 0.00 0.00 0.00 74 1000.5
20210121192635 27 182 0.0 4.0 0.00 0.00 0.00 74 1000.6
20210121192129 27 302 1.0 5.0 0.00 0.00 0.00 74 1000.7
20210121191624 27 266 0.0 5.0 0.00 0.00 0.00 75 1000.8
20210121191117 27 269 0.0 2.0 0.00 0.00 0.00 74 1000.8
20210121190610 27 308 0.0 2.0 0.00 0.00 0.00 74 1000.9
20210121190111 27 289 0.0 3.0 0.00 0.00 0.00 76 1001.0
20210121185558 26 303 1.0 4.0 0.00 0.00 0.00 76 1001.1
20210121185051 26 198 1.0 6.0 0.00 0.00 0.00 77 1001.1
20210121184546 26 278 0.0 6.0 0.00 0.00 0.00 76 1001.0
20210121184040 26 234 0.0 3.0 0.00 0.00 0.00 77 1001.1
20210121183533 26 146 0.0 8.0 0.00 0.00 0.00 78 1001.2
20210121183043 25 211 1.0 8.0 0.00 0.00 0.00 77 1001.3
20210121182521 25 294 1.0 5.0 0.00 0.00 0.00 78 1001.4
20210121182016 25 121 1.0 5.0 0.00 0.00 0.00 78 1001.5
20210121181521 25 288 1.0 7.0 0.00 0.00 0.00 78 1001.6
20210121181012 25 182 1.0 7.0 0.00 0.00 0.00 79 1001.7
20210121180457 25 294 1.0 6.0 0.00 0.00 0.00 78 1001.6
20210121175952 24 267 0.0 4.0 0.00 0.00 0.00 80 1001.7
20210121175456 24 287 1.0 4.0 0.00 0.00 0.00 80 1001.7
20210121174942 24 290 1.0 7.0 0.00 0.00 0.00 81 1001.8
20210121174434 24 319 1.0 11.0 0.00 0.00 0.00 81 1001.8
20210121173927 24 290 1.0 11.0 0.00 0.00 0.00 81 1001.9
20210121173422 23 169 1.0 7.0 0.00 0.00 0.00 82 1002.0
20210121172917 23 137 1.0 7.0 0.00 0.00 0.00 82 1002.1
20210121172409 23 338 0.0 2.0 0.00 0.00 0.00 83 1002.5
20210121171906 23 338 0.0 4.0 0.00 0.00 0.00 83 1002.5
20210121171359 23 355 1.0 4.0 0.00 0.00 0.00 84 1002.6
20210121170854 23 170 0.0 4.0 0.00 0.00 0.00 84 1002.6
20210121170350 22 246 0.0 2.0 0.00 0.00 0.00 85 1002.7
20210121165846 22 299 0.0 0.0 0.00 0.00 0.00 85 1002.9
20210121165430 22 152 0.0 3.0 0.00 0.01 0.00 86 1003.0
20210121164918 22 302 0.0 5.0 0.00 0.01 0.00 86 1003.1
20210121164416 22 302 0.0 5.0 0.00 0.01 0.00 86 1003.2
20210121163922 21 320 0.0 2.0 0.00 0.01 0.00 87 1003.5
20210121163417 21 320 0.0 2.0 0.00 0.01 0.00 87 1003.5
20210121162917 21 63 0.0 2.0 0.00 0.01 0.00 88 1003.5
20210121162415 21 84 0.0 1.0 0.00 0.01 0.00 88 1003.6
20210121161916 21 84 0.0 1.0 0.00 0.01 0.00 89 1003.8
20210121161422 21 91 0.0 1.0 0.00 0.01 0.00 89 1003.8
20210121160920 21 91 0.0 1.0 0.00 0.01 0.00 89 1003.7
20210121160422 21 91 0.0 2.0 0.00 0.02 0.00 89 1003.8
20210121155917 20 38 1.0 6.0 0.00 0.02 0.00 89 1003.9
20210121155417 20 290 1.0 6.0 0.00 0.02 0.00 89 1004.1
20210121154916 20 168 0.0 4.0 0.00 0.02 0.00 90 1004.1
20210121154417 20 168 0.0 4.0 0.00 0.02 0.00 90 1004.3
20210121154410 17 292 0.0 2.0 0.00 0.02 0.02 72 1013.6
20210121154404 17 294 0.0 2.0 0.00 0.02 0.02 71 1013.8
20210121154356 17 292 0.0 2.0 0.00 0.02 0.02 71 1013.7
20210121154345 17 295 0.0 2.0 0.00 0.02 0.02 71 1013.8
20210121154340 17 296 0.0 2.0 0.00 0.02 0.02 71 1013.9
20210121154332 17 296 1.0 5.0 0.00 0.02 0.02 71 1014.1
20210121154326 17 298 1.0 5.0 0.00 0.02 0.02 70 1014.2
20210121154317 17 298 1.0 5.0 0.00 0.02 0.02 70 1014.1
20210121154306 17 47 1.0 5.0 0.00 0.02 0.02 70 1014.1
20210121154301 17 302 0.0 5.0 0.00 0.02 0.02 71 1014.1
20210121154254 18 305 0.0 2.0 0.00 0.02 0.02 70 1014.1
20210121154248 18 305 0.0 1.0 0.00 0.02 0.02 70 1014.2
20210121154235 18 305 0.0 3.0 0.00 0.02 0.02 69 1014.3
20210121154228 18 294 0.0 3.0 0.00 0.02 0.02 69 1014.4
20210121154219 18 315 1.0 3.0 0.00 0.02 0.02 69 1014.4
20210121154214 18 335 1.0 8.0 0.00 0.02 0.02 69 1014.4
20210121154204 18 278 0.0 8.0 0.00 0.02 0.02 70 1014.3
20210121154155 18 205 0.0 3.0 0.00 0.02 0.02 70 1014.2
20210121154147 19 299 0.0 3.0 0.00 0.02 0.02 70 1014.2
20210121154142 19 299 0.0 5.0 0.00 0.02 0.02 69 1014.1
20210121154133 19 289 0.0 5.0 0.00 0.02 0.02 70 1014.1
20210121154125 19 275 0.0 3.0 0.00 0.02 0.02 71 1014.1
20210121154118 18 131 0.0 1.0 0.00 0.02 0.00 87 1005.3
20210121154111 17 131 0.0 1.0 0.00 0.02 0.00 86 1005.4
20210121154102 17 131 0.0 1.0 0.00 0.02 0.00 86 1005.3
20210121154053 17 131 0.0 3.0 0.00 0.02 0.00 86 1005.4
20210121154039 17 131 0.0 3.0 0.00 0.02 0.00 86 1005.4
20210121154033 17 132 0.0 1.0 0.00 0.02 0.00 86 1005.5
20210121154021 16 132 0.0 2.0 0.00 0.02 0.00 87 1005.5
20210121154019 16 132 0.0 2.0 0.00 0.02 0.00 87 1005.4
20210121154000 15 132 0.0 0.0 0.00 0.02 0.00 87 1005.6
20210121153949 15 132 0.0 0.0 0.00 0.02 0.00 88 1005.9
20210121153944 15 132 0.0 1.0 0.00 0.02 0.00 88 1006.1
20210121153934 14 132 0.0 1.0 0.00 0.02 0.00 89 1006.2
20210121153926 14 132 0.0 2.0 0.00 0.02 0.00 90 1006.4
20210121153917 20 273 0.0 2.0 0.00 0.02 0.00 90 1004.5
20210121153910 13 132 0.0 2.0 0.00 0.02 0.00 90 1006.5
20210121153901 13 188 0.0 1.0 0.00 0.02 0.00 90 1006.5
20210121153854 13 188 0.0 2.0 0.00 0.02 0.00 90 1006.5
20210121153845 13 188 0.0 2.0 0.00 0.02 0.00 90 1006.2
20210121153836 12 185 0.0 1.0 0.00 0.02 0.00 91 1006.0
20210121153828 12 185 0.0 1.0 0.00 0.02 0.00 91 1005.8
20210121153820 12 185 0.0 1.0 0.00 0.02 0.00 90 1005.8
20210121153812 12 185 0.0 1.0 0.00 0.02 0.00 90 1006.2
20210121153805 11 185 0.0 1.0 0.00 0.02 0.00 91 1006.4
20210121153755 11 185 0.0 0.0 0.00 0.02 0.00 91 1006.6
20210121153747 11 185 0.0 0.0 0.00 0.02 0.00 91 1006.9
20210121153744 11 185 0.0 0.0 0.00 0.02 0.00 91 1007.1
20210121153732 11 185 0.0 0.0 0.00 0.02 0.00 91 1007.2
20210121153724 11 185 0.0 0.0 0.00 0.02 0.00 91 1007.2
20210121153716 11 185 0.0 0.0 0.00 0.02 0.00 91 1007.3
20210121153713 11 185 0.0 0.0 0.00 0.02 0.00 91 1007.2
20210121153700 10 185 0.0 0.0 0.00 0.02 0.00 91 1007.3
20210121153653 10 185 0.0 0.0 0.00 0.02 0.00 91 1007.3
20210121153644 10 185 0.0 0.0 0.00 0.02 0.00 91 1007.5
20210121153639 10 185 0.0 0.0 0.00 0.02 0.00 91 1007.4
20210121153631 10 185 0.0 0.0 0.00 0.02 0.00 91 1007.3
20210121153621 10 185 0.0 0.0 0.00 0.02 0.00 91 1007.4
20210121153611 10 185 0.0 0.0 0.00 0.02 0.00 91 1007.6
20210121153605 9 185 0.0 0.0 0.00 0.02 0.00 91 1007.5
20210121153554 9 185 0.0 0.0 0.00 0.02 0.00 90 1007.8
20210121153547 9 185 0.0 0.0 0.00 0.02 0.00 90 1008.1
20210121153538 9 185 0.0 0.0 0.00 0.02 0.00 90 1008.2
20210121153527 9 185 0.0 0.0 0.00 0.02 0.00 90 1008.1
20210121153520 9 185 0.0 0.0 0.00 0.02 0.00 89 1008.1
20210121153518 9 185 0.0 0.0 0.00 0.02 0.00 89 1008.4
20210121153454 9 185 0.0 0.0 0.00 0.02 0.00 88 1008.6
20210121153446 10 185 0.0 0.0 0.00 0.02 0.00 89 1008.8
20210121153437 10 185 0.0 0.0 0.00 0.02 0.00 89 1008.7
20210121153430 10 185 0.0 0.0 0.00 0.02 0.00 89 1008.7
20210121153415 20 213 0.0 2.0 0.00 0.02 0.00 90 1004.7
20210121153409 10 185 0.0 0.0 0.00 0.02 0.00 88 1008.8
20210121153404 10 185 0.0 0.0 0.00 0.02 0.00 88 1009.0
20210121153353 10 185 0.0 0.0 0.00 0.02 0.00 88 1009.0
20210121153344 11 185 0.0 0.0 0.00 0.02 0.00 87 1009.2
20210121153336 11 185 0.0 0.0 0.00 0.02 0.00 87 1009.0
20210121153334 11 185 0.0 0.0 0.00 0.02 0.00 87 1008.9
20210121153321 11 185 0.0 0.0 0.00 0.02 0.00 86 1009.3
20210121153312 11 185 0.0 0.0 0.00 0.02 0.00 87 1009.4
20210121153305 11 185 0.0 0.0 0.00 0.02 0.00 87 1009.6
20210121153255 12 185 0.0 0.0 0.00 0.02 0.00 87 1009.5
20210121153246 12 185 0.0 0.0 0.00 0.02 0.00 86 1009.5
20210121153240 12 185 0.0 0.0 0.00 0.02 0.00 86 1009.8
20210121153235 12 185 0.0 0.0 0.00 0.02 0.00 86 1009.9
20210121153224 12 185 0.0 0.0 0.00 0.02 0.00 86 1009.9
20210121153214 12 185 0.0 0.0 0.00 0.02 0.00 86 1010.1
20210121153207 12 185 0.0 0.0 0.00 0.02 0.00 86 1010.0
20210121153201 12 185 0.0 0.0 0.00 0.02 0.00 86 1010.2
20210121153152 12 185 0.0 0.0 0.00 0.02 0.00 85 1010.4
20210121153145 13 185 0.0 0.0 0.00 0.02 0.00 85 1010.4
20210121153130 13 185 0.0 0.0 0.00 0.02 0.00 85 1010.5
20210121153122 13 185 0.0 0.0 0.00 0.02 0.00 85 1010.6
20210121153114 13 185 0.0 0.0 0.00 0.02 0.00 85 1010.7
20210121153108 13 185 0.0 0.0 0.00 0.02 0.00 85 1010.8
20210121153057 13 185 0.0 0.0 0.00 0.02 0.00 85 1010.9
20210121153047 13 185 0.0 0.0 0.00 0.02 0.00 85 1011.0
20210121153040 13 185 0.0 0.0 0.00 0.02 0.00 85 1011.2
20210121153032 13 185 0.0 0.0 0.00 0.02 0.00 85 1011.4
20210121153028 13 185 0.0 0.0 0.00 0.02 0.00 85 1011.4
20210121153025 13 185 0.0 0.0 0.00 0.02 0.00 85 1011.5
20210121153022 13 185 0.0 0.0 0.00 0.02 0.00 85 1011.5
20210121152958 13 185 0.0 0.0 0.00 0.02 0.00 84 1011.5
20210121152948 13 185 0.0 0.0 0.00 0.02 0.00 84 1011.6
20210121152938 13 185 0.0 0.0 0.00 0.02 0.00 84 1011.8
20210121152934 13 185 0.0 0.0 0.00 0.02 0.00 84 1011.7
20210121152924 13 185 0.0 0.0 0.00 0.02 0.00 84 1011.7
20210121152916 19 255 0.0 2.0 0.00 0.02 0.00 90 1004.9
20210121152914 13 185 0.0 0.0 0.00 0.02 0.00 84 1011.7
20210121152903 13 185 0.0 0.0 0.00 0.02 0.00 83 1011.7
20210121152852 13 185 0.0 0.0 0.00 0.02 0.00 83 1011.8
20210121152836 13 185 0.0 0.0 0.00 0.02 0.00 83 1011.9
20210121152824 13 185 0.0 0.0 0.00 0.02 0.00 82 1012.2
20210121152815 13 185 0.0 0.0 0.00 0.02 0.00 82 1012.3
20210121152808 13 185 0.0 0.0 0.00 0.02 0.00 82 1012.4
20210121152805 13 185 0.0 0.0 0.00 0.02 0.00 82 1012.6
20210121152749 13 185 0.0 0.0 0.00 0.02 0.00 81 1012.8
20210121152744 13 185 0.0 0.0 0.00 0.02 0.00 80 1012.9
20210121152729 14 185 0.0 0.0 0.00 0.02 0.00 80 1013.0
20210121152721 14 185 0.0 0.0 0.00 0.02 0.00 79 1013.0
20210121152710 14 185 0.0 1.0 0.00 0.02 0.00 79 1013.2
20210121152702 15 185 0.0 1.0 0.00 0.02 0.00 78 1013.2
20210121152658 15 185 0.0 0.0 0.00 0.02 0.00 78 1013.3
20210121152648 15 185 0.0 0.0 0.00 0.02 0.00 78 1013.4
20210121152640 15 185 0.0 2.0 0.00 0.02 0.00 78 1013.5
20210121152630 15 185 0.0 2.0 0.00 0.02 0.00 78 1013.6
20210121152622 15 185 0.0 1.0 0.00 0.02 0.00 78 1013.7
20210121152617 15 185 0.0 1.0 0.00 0.02 0.00 78 1013.6
20210121152555 15 183 0.0 3.0 0.00 0.02 0.00 78 1013.5
20210121152549 15 250 0.0 1.0 0.00 0.02 0.00 78 1013.5
20210121152541 15 250 0.0 3.0 0.00 0.02 0.00 78 1013.5
20210121152532 15 250 0.0 3.0 0.00 0.02 0.00 78 1013.4
20210121152527 14 221 0.0 2.0 0.00 0.02 0.00 79 1013.5
20210121152518 14 219 0.0 2.0 0.00 0.02 0.00 79 1013.4
20210121152457 14 173 0.0 3.0 0.00 0.02 0.00 80 1013.6
20210121152449 14 173 1.0 4.0 0.00 0.02 0.02 79 1013.5
20210121152444 14 188 0.0 3.0 0.00 0.02 0.02 79 1013.5
20210121152437 14 194 0.0 2.0 0.00 0.02 0.02 79 1013.4
20210121152430 14 194 0.0 2.0 0.00 0.02 0.02 78 1013.5
20210121152416 19 297 0.0 1.0 0.00 0.02 0.00 90 1005.1
20210121152409 14 194 0.0 2.0 0.00 0.02 0.02 79 1013.7
20210121152401 14 194 0.0 2.0 0.00 0.02 0.02 78 1013.7
20210121152359 14 194 0.0 0.0 0.00 0.02 0.02 77 1013.6
20210121152346 15 194 0.0 0.0 0.00 0.02 0.02 76 1013.6
20210121152339 15 194 0.0 0.0 0.00 0.02 0.02 76 1013.5
20210121152333 15 194 0.0 1.0 0.00 0.02 0.02 75 1013.5
20210121152325 15 194 0.0 1.0 0.00 0.02 0.02 74 1013.4
20210121152318 15 194 0.0 1.0 0.00 0.02 0.02 74 1013.5
20210121152315 15 194 0.0 2.0 0.00 0.02 0.02 74 1013.4
20210121152306 15 194 0.0 2.0 0.00 0.02 0.02 74 1013.5
20210121152253 16 200 0.0 1.0 0.00 0.02 0.02 74 1013.5
20210121152242 16 201 0.0 2.0 0.00 0.02 0.02 73 1013.4
20210121152236 16 201 0.0 3.0 0.00 0.02 0.02 74 1013.4
20210121152228 16 250 0.0 3.0 0.00 0.02 0.02 74 1013.3
20210121152224 16 317 0.0 1.0 0.00 0.02 0.02 73 1013.4
20210121152216 18 131 0.0 0.0 0.00 0.02 0.00 87 1005.4
20210121152206 18 133 0.0 2.0 0.00 0.02 0.00 88 1005.6
20210121152159 18 293 1.0 7.0 0.00 0.02 0.00 89 1005.5
20210121152154 19 298 1.0 7.0 0.00 0.02 0.00 89 1005.5
20210121152147 19 298 0.0 2.0 0.00 0.02 0.00 90 1005.4
20210121152142 18 131 0.0 2.0 0.00 0.02 0.00 87 1005.4
20210121152125 16 318 0.0 0.0 0.00 0.02 0.02 73 1013.5
20210121152116 16 318 0.0 2.0 0.00 0.02 0.02 73 1013.5
20210121152112 16 318 0.0 2.0 0.00 0.02 0.02 72 1013.4
20210121152103 16 272 0.0 2.0 0.00 0.02 0.02 72 1013.5
20210121152055 16 272 0.0 3.0 0.00 0.02 0.02 72 1013.3
20210121152041 17 313 1.0 3.0 0.00 0.02 0.02 72 1013.3
20210121152019 17 293 0.0 3.0 0.00 0.02 0.02 72 1013.3